Time,TemperatureF,DewpointF,PressureIn,WindDirection,WindDirectionDegrees,WindSpeedMPH,WindSpeedGustMPH,Humidity,HourlyPrecipIn,Conditions,Clouds,dailyrainin,SoftwareType,DateUTC
2013-02-18 00:00:00,27.7,20.5,29.96,SE,135,10.0,19.0,74,0.00,,,0.00,VWS V14.01,2013-02-18 06:00:00,
2013-02-18 00:05:00,27.8,21.0,29.95,SSE,149,11.0,17.0,74,0.00,,,0.00,weatherlink.com 1.10,2013-02-18 06:05:00,
2013-02-18 00:20:00,28.0,21.0,29.94,SE,141,5.0,17.0,74,0.00,,,0.00,weatherlink.com 1.10,2013-02-18 06:20:00,
2013-02-18 00:30:00,28.1,20.9,29.94,SE,135,9.0,19.0,74,0.00,,,0.00,VWS V14.01,2013-02-18 06:30:00,
2013-02-18 00:35:00,28.2,21.0,29.93,South,188,5.0,18.0,73,0.00,,,0.00,weatherlink.com 1.10,2013-02-18 06:35:00,
2013-02-18 00:50:00,28.6,21.0,29.93,SE,130,8.0,25.0,73,0.00,,,0.00,weatherlink.com 1.10,2013-02-18 06:50:00,
2013-02-18 01:00:00,28.6,21.1,29.92,SE,135,10.0,25.0,73,0.00,,,0.00,VWS V14.01,2013-02-18 07:00:00,
2013-02-18 01:05:00,28.7,21.0,29.91,ESE,102,10.0,19.0,73,0.00,,,0.00,weatherlink.com 1.10,2013-02-18 07:05:00,
2013-02-18 01:20:00,28.9,21.0,29.91,SE,141,17.0,18.0,73,0.00,,,0.00,weatherlink.com 1.10,2013-02-18 07:20:00,
2013-02-18 01:30:00,29.0,21.4,29.91,SE,135,10.0,22.0,73,0.00,,,0.00,VWS V14.01,2013-02-18 07:30:00,
2013-02-18 01:35:00,29.0,21.0,29.90,SSE,164,10.0,19.0,73,0.00,,,0.00,weatherlink.com 1.10,2013-02-18 07:35:00,
2013-02-18 01:50:00,29.1,21.0,29.89,SE,136,11.0,18.0,73,0.00,,,0.00,weatherlink.com 1.10,2013-02-18 07:50:00,
2013-02-18 02:00:00,29.2,21.6,29.88,SE,135,10.0,22.0,73,0.00,,,0.00,VWS V14.01,2013-02-18 08:00:00,
2013-02-18 02:05:00,29.2,22.0,29.88,SE,133,14.0,17.0,73,0.00,,,0.00,weatherlink.com 1.10,2013-02-18 08:05:00,
2013-02-18 02:20:00,29.1,22.0,29.87,SSE,150,5.0,21.0,74,0.00,,,0.00,weatherlink.com 1.10,2013-02-18 08:20:00,
2013-02-18 02:30:00,29.2,21.6,29.87,SE,135,10.0,20.0,73,0.00,,,0.00,VWS V14.01,2013-02-18 08:30:00,
2013-02-18 02:35:00,29.3,22.0,29.86,SE,139,8.0,20.0,73,0.00,,,0.00,weatherlink.com 1.10,2013-02-18 08:35:00,
2013-02-18 02:50:00,29.2,22.0,29.84,SE,140,12.0,20.0,73,0.00,,,0.00,weatherlink.com 1.10,2013-02-18 08:50:00,
2013-02-18 03:00:00,29.2,21.6,29.84,SE,135,11.0,23.0,73,0.00,,,0.00,VWS V14.01,2013-02-18 09:00:00,
2013-02-18 03:05:00,29.2,22.0,29.84,East,96,10.0,18.0,74,0.00,,,0.00,weatherlink.com 1.10,2013-02-18 09:05:00,
2013-02-18 03:20:00,29.1,22.0,29.82,SSE,154,8.0,23.0,74,0.00,,,0.00,weatherlink.com 1.10,2013-02-18 09:20:00,
2013-02-18 03:30:00,29.2,21.6,29.82,SE,135,10.0,22.0,73,0.00,,,0.00,VWS V14.01,2013-02-18 09:30:00,
2013-02-18 03:35:00,29.3,22.0,29.81,SSE,150,7.0,26.0,73,0.00,,,0.00,weatherlink.com 1.10,2013-02-18 09:35:00,
2013-02-18 03:50:00,29.3,22.0,29.81,NE,39,5.0,19.0,73,0.00,,,0.00,weatherlink.com 1.10,2013-02-18 09:50:00,
2013-02-18 04:00:00,29.2,22.0,29.80,SE,135,11.0,26.0,74,0.00,,,0.00,VWS V14.01,2013-02-18 10:00:00,
2013-02-18 04:06:00,29.2,22.0,29.80,ESE,119,18.0,22.0,74,0.00,,,0.00,weatherlink.com 1.10,2013-02-18 10:06:00,
2013-02-18 04:21:00,29.2,22.0,29.79,SW,219,11.0,25.0,74,0.00,,,0.00,weatherlink.com 1.10,2013-02-18 10:21:00,
2013-02-18 04:30:00,29.1,21.9,29.79,SSE,158,11.0,29.0,74,0.00,,,0.00,VWS V14.01,2013-02-18 10:30:00,
2013-02-18 04:36:00,29.2,22.0,29.78,SE,141,8.0,22.0,75,0.00,,,0.00,weatherlink.com 1.10,2013-02-18 10:36:00,
2013-02-18 04:51:00,29.0,22.0,29.78,SE,129,9.0,22.0,75,0.00,,,0.00,weatherlink.com 1.10,2013-02-18 10:51:00,
2013-02-18 05:00:00,29.0,22.4,29.78,SE,135,11.0,21.0,76,0.00,,,0.00,VWS V14.01,2013-02-18 11:00:00,
2013-02-18 05:06:00,29.1,22.0,29.78,SSE,150,6.0,20.0,76,0.00,,,0.00,weatherlink.com 1.10,2013-02-18 11:06:00,
2013-02-18 05:21:00,29.2,23.0,29.77,SSE,157,9.0,20.0,76,0.00,,,0.00,weatherlink.com 1.10,2013-02-18 11:21:00,
2013-02-18 05:30:00,29.2,22.6,29.76,SE,135,10.0,20.0,76,0.00,,,0.00,VWS V14.01,2013-02-18 11:30:00,
2013-02-18 05:36:00,29.2,23.0,29.76,SE,140,9.0,17.0,76,0.00,,,0.00,weatherlink.com 1.10,2013-02-18 11:36:00,
2013-02-18 05:51:00,29.2,23.0,29.76,SE,146,10.0,22.0,77,0.00,,,0.00,weatherlink.com 1.10,2013-02-18 11:51:00,
2013-02-18 06:00:00,29.3,23.0,29.75,SE,135,10.0,22.0,77,0.00,,,0.00,VWS V14.01,2013-02-18 12:00:00,
2013-02-18 06:06:00,29.4,23.0,29.75,SE,130,5.0,23.0,77,0.00,,,0.00,weatherlink.com 1.10,2013-02-18 12:06:00,
2013-02-18 06:21:00,29.5,23.0,29.74,SSE,155,7.0,19.0,77,0.00,,,0.00,weatherlink.com 1.10,2013-02-18 12:21:00,
2013-02-18 06:30:00,29.5,23.5,29.74,SSE,158,10.0,21.0,78,0.00,,,0.00,VWS V14.01,2013-02-18 12:30:00,
2013-02-18 06:36:00,29.6,24.0,29.73,ESE,115,8.0,21.0,78,0.00,,,0.00,weatherlink.com 1.10,2013-02-18 12:36:00,
2013-02-18 06:51:00,29.8,24.0,29.73,SSW,205,7.0,21.0,78,0.00,,,0.00,weatherlink.com 1.10,2013-02-18 12:51:00,
2013-02-18 07:06:00,30.1,24.0,29.72,SSE,164,11.0,19.0,78,0.00,,,0.00,weatherlink.com 1.10,2013-02-18 13:06:00,
2013-02-18 07:12:00,30.2,24.2,29.73,South,178,6.0,6.0,78,0.00,,,0.00,VWS V14.01,2013-02-18 13:12:00,
2013-02-18 07:17:00,30.4,24.4,29.72,SSE,165,7.0,13.0,78,0.00,,SCT250,0.00,VWS V14.01,2013-02-18 13:17:00,
2013-02-18 07:22:00,30.6,24.6,29.72,South,190,6.0,14.0,78,0.00,,SCT250,0.00,VWS V14.01,2013-02-18 13:22:00,
2013-02-18 07:27:00,30.8,24.8,29.72,SW,219,6.0,15.0,78,0.00,,SCT250,0.00,VWS V14.01,2013-02-18 13:27:00,
2013-02-18 07:32:00,31.1,25.0,29.71,South,180,3.0,16.0,78,0.00,,SCT250,0.00,VWS V14.01,2013-02-18 13:32:00,
2013-02-18 07:37:00,31.4,25.4,29.72,SSE,163,15.0,16.0,78,0.00,,SCT250,0.00,VWS V14.01,2013-02-18 13:37:00,
2013-02-18 07:42:00,31.7,25.6,29.72,SW,226,4.0,17.0,78,0.00,,SCT250,0.00,VWS V14.01,2013-02-18 13:42:00,
2013-02-18 07:47:00,31.9,25.8,29.71,South,175,8.0,20.0,78,0.00,,SCT250,0.00,VWS V14.01,2013-02-18 13:47:00,
2013-02-18 07:52:00,32.1,25.7,29.71,SE,124,7.0,20.0,77,0.00,,SCT250,0.00,VWS V14.01,2013-02-18 13:52:00,
2013-02-18 07:57:00,32.3,26.2,29.72,SE,134,7.0,20.0,78,0.00,,BKN250,0.00,VWS V14.01,2013-02-18 13:57:00,
2013-02-18 08:02:00,32.6,26.5,29.71,SSW,198,7.0,15.0,78,0.00,,BKN250,0.00,VWS V14.01,2013-02-18 14:02:00,
2013-02-18 08:07:00,33.0,26.6,29.71,South,175,11.0,15.0,77,0.00,,BKN250,0.00,VWS V14.01,2013-02-18 14:07:00,
2013-02-18 08:12:00,33.5,27.1,29.71,East,89,8.0,16.0,77,0.00,,BKN250,0.00,VWS V14.01,2013-02-18 14:12:00,
2013-02-18 08:17:00,33.9,27.5,29.70,South,190,11.0,20.0,77,0.00,,BKN250,0.00,VWS V14.01,2013-02-18 14:17:00,
2013-02-18 08:22:00,34.1,27.3,29.70,SSE,163,9.0,20.0,76,0.00,,BKN250,0.00,VWS V14.01,2013-02-18 14:22:00,
2013-02-18 08:27:00,34.5,28.0,29.70,SSW,192,7.0,20.0,77,0.00,,BKN250,0.00,VWS V14.01,2013-02-18 14:27:00,
2013-02-18 08:32:00,34.7,28.2,29.70,SE,146,14.0,18.0,77,0.00,,BKN250,0.00,VWS V14.01,2013-02-18 14:32:00,
2013-02-18 08:37:00,35.0,28.5,29.69,South,186,9.0,18.0,77,0.00,,OVC250,0.00,VWS V14.01,2013-02-18 14:37:00,
2013-02-18 08:42:00,35.0,28.2,29.69,SSW,211,13.0,18.0,76,0.00,,OVC250,0.00,VWS V14.01,2013-02-18 14:42:00,
2013-02-18 08:47:00,35.2,28.7,29.69,SSE,149,7.0,19.0,77,0.00,,OVC250,0.00,VWS V14.01,2013-02-18 14:47:00,
2013-02-18 08:52:00,35.6,29.1,29.68,SSW,192,6.0,19.0,77,0.00,,OVC250,0.00,VWS V14.01,2013-02-18 14:52:00,
2013-02-18 08:57:00,35.9,29.4,29.69,SSW,206,12.0,19.0,77,0.00,,OVC250,0.00,VWS V14.01,2013-02-18 14:57:00,
2013-02-18 09:02:00,36.3,29.8,29.68,SSE,161,7.0,12.0,77,0.00,,OVC250,0.00,VWS V14.01,2013-02-18 15:02:00,
2013-02-18 09:07:00,36.7,30.2,29.68,SW,224,18.0,19.0,77,0.00,,OVC250,0.00,VWS V14.01,2013-02-18 15:07:00,
2013-02-18 09:12:00,37.3,30.4,29.68,South,169,10.0,21.0,76,0.00,,OVC250,0.00,VWS V14.01,2013-02-18 15:12:00,
2013-02-18 09:17:00,37.6,30.7,29.68,SSE,153,8.0,21.0,76,0.00,,OVC250,0.00,VWS V14.01,2013-02-18 15:17:00,
2013-02-18 09:22:00,38.0,31.4,29.68,South,183,18.0,21.0,77,0.00,,OVC250,0.00,VWS V14.01,2013-02-18 15:22:00,
2013-02-18 09:27:00,38.7,31.8,29.67,SSW,206,13.0,22.0,76,0.00,,OVC250,0.00,VWS V14.01,2013-02-18 15:27:00,
2013-02-18 09:32:00,38.9,31.7,29.67,SSE,147,12.0,18.0,75,0.00,,OVC250,0.00,VWS V14.01,2013-02-18 15:32:00,
2013-02-18 09:37:00,39.2,32.3,29.68,South,173,9.0,18.0,76,0.00,,OVC250,0.00,VWS V14.01,2013-02-18 15:37:00,
2013-02-18 09:42:00,39.5,32.2,29.67,SSE,164,7.0,20.0,75,0.00,,OVC250,0.00,VWS V14.01,2013-02-18 15:42:00,
2013-02-18 09:47:00,39.8,32.5,29.67,SW,214,11.0,22.0,75,0.00,,OVC250,0.00,VWS V14.01,2013-02-18 15:47:00,
2013-02-18 09:52:00,39.9,32.6,29.67,SW,227,17.0,22.0,75,0.00,,OVC250,0.00,VWS V14.01,2013-02-18 15:52:00,
2013-02-18 09:57:00,40.1,32.8,29.67,SSW,192,12.0,24.0,75,0.00,,OVC250,0.00,VWS V14.01,2013-02-18 15:57:00,
2013-02-18 10:03:00,40.1,32.8,29.67,SSW,209,7.0,21.0,75,0.00,,OVC250,0.00,VWS V14.01,2013-02-18 16:03:00,
2013-02-18 10:08:00,40.2,33.2,29.67,SW,223,19.0,21.0,76,0.00,,OVC250,0.00,VWS V14.01,2013-02-18 16:08:00,
2013-02-18 10:13:00,40.3,33.3,29.67,SSE,157,7.0,21.0,76,0.00,,OVC250,0.00,VWS V14.01,2013-02-18 16:13:00,
2013-02-18 10:18:00,40.6,33.6,29.66,South,190,11.0,24.0,76,0.00,,OVC250,0.00,VWS V14.01,2013-02-18 16:18:00,
2013-02-18 10:23:00,40.7,33.7,29.66,SW,223,12.0,24.0,76,0.00,,OVC250,0.00,VWS V14.01,2013-02-18 16:23:00,
2013-02-18 10:28:00,41.1,34.1,29.66,SSE,166,9.0,24.0,76,0.00,,OVC250,0.00,VWS V14.01,2013-02-18 16:28:00,
2013-02-18 10:33:00,41.4,34.4,29.66,SSW,213,18.0,18.0,76,0.00,,OVC250,0.00,VWS V14.01,2013-02-18 16:33:00,
2013-02-18 10:38:00,41.2,34.2,29.66,South,184,9.0,19.0,76,0.00,,OVC250,0.00,VWS V14.01,2013-02-18 16:38:00,
2013-02-18 10:42:00,41.2,34.2,29.66,SSW,205,7.0,19.0,76,0.00,,OVC250,0.00,VWS V14.01,2013-02-18 16:42:00,
2013-02-18 10:47:00,41.4,34.7,29.65,SSE,162,6.0,19.0,77,0.00,,OVC250,0.00,VWS V14.01,2013-02-18 16:47:00,
2013-02-18 10:53:00,41.7,35.0,29.65,SSW,207,7.0,19.0,77,0.00,,OVC250,0.00,VWS V14.01,2013-02-18 16:53:00,
2013-02-18 10:58:00,42.0,35.3,29.65,SSE,165,13.0,19.0,77,0.00,,OVC250,0.00,VWS V14.01,2013-02-18 16:58:00,
2013-02-18 11:03:00,42.6,35.9,29.65,SSE,161,9.0,15.0,77,0.00,,OVC250,0.00,VWS V14.01,2013-02-18 17:03:00,
2013-02-18 11:08:00,43.4,36.7,29.64,SSW,196,8.0,17.0,77,0.00,,OVC250,0.00,VWS V14.01,2013-02-18 17:08:00,
2013-02-18 11:13:00,44.0,36.9,29.64,SSW,211,10.0,17.0,76,0.00,,OVC250,0.00,VWS V14.01,2013-02-18 17:13:00,
2013-02-18 11:18:00,44.6,37.5,29.63,SSE,155,15.0,17.0,76,0.00,,OVC250,0.00,VWS V14.01,2013-02-18 17:18:00,
2013-02-18 11:23:00,45.3,37.9,29.63,SSW,209,7.0,24.0,75,0.00,,OVC250,0.00,VWS V14.01,2013-02-18 17:23:00,
2013-02-18 11:28:00,45.9,38.1,29.63,SSE,157,9.0,24.0,74,0.00,,OVC250,0.00,VWS V14.01,2013-02-18 17:28:00,
2013-02-18 11:33:00,46.4,38.2,29.62,SSW,202,17.0,24.0,73,0.00,,OVC250,0.00,VWS V14.01,2013-02-18 17:33:00,
2013-02-18 11:38:00,46.5,38.3,29.62,SW,218,11.0,24.0,73,0.00,,OVC250,0.00,VWS V14.01,2013-02-18 17:38:00,
2013-02-18 11:43:00,46.6,38.4,29.62,SSW,206,7.0,24.0,73,0.00,,OVC250,0.00,VWS V14.01,2013-02-18 17:43:00,
2013-02-18 11:48:00,46.8,38.6,29.62,SSW,196,14.0,24.0,73,0.00,,OVC250,0.00,VWS V14.01,2013-02-18 17:48:00,
2013-02-18 11:53:00,47.1,38.9,29.62,SW,221,8.0,24.0,73,0.00,,OVC250,0.00,VWS V14.01,2013-02-18 17:53:00,
2013-02-18 11:58:00,46.9,38.4,29.61,SSW,194,17.0,24.0,72,0.00,,OVC250,0.00,VWS V14.01,2013-02-18 17:58:00,
2013-02-18 12:03:00,46.6,38.8,29.61,SW,217,13.0,19.0,74,0.00,,OVC250,0.00,VWS V14.01,2013-02-18 18:03:00,
2013-02-18 12:08:00,46.6,39.1,29.61,SSW,200,13.0,19.0,75,0.00,,OVC250,0.00,VWS V14.01,2013-02-18 18:08:00,
2013-02-18 12:13:00,46.8,39.3,29.61,SSW,210,11.0,19.0,75,0.00,,OVC250,0.00,VWS V14.01,2013-02-18 18:13:00,
2013-02-18 12:18:00,47.3,39.8,29.60,SSW,193,8.0,19.0,75,0.00,,OVC250,0.00,VWS V14.01,2013-02-18 18:18:00,
2013-02-18 12:23:00,48.0,40.5,29.60,SSW,207,13.0,19.0,75,0.00,,OVC250,0.00,VWS V14.01,2013-02-18 18:23:00,
2013-02-18 12:28:00,48.7,40.8,29.60,SW,219,7.0,19.0,74,0.00,,OVC250,0.00,VWS V14.01,2013-02-18 18:28:00,
2013-02-18 12:33:00,48.7,40.5,29.59,SW,214,7.0,19.0,73,0.00,,OVC250,0.00,VWS V14.01,2013-02-18 18:33:00,
2013-02-18 12:38:00,48.5,40.6,29.59,SSW,206,10.0,19.0,74,0.00,,OVC250,0.00,VWS V14.01,2013-02-18 18:38:00,
2013-02-18 12:43:00,48.4,40.5,29.59,SSW,200,12.0,19.0,74,0.00,,OVC250,0.00,VWS V14.01,2013-02-18 18:43:00,
2013-02-18 12:48:00,48.4,40.8,29.58,SSE,161,10.0,19.0,75,0.00,,OVC250,0.00,VWS V14.01,2013-02-18 18:48:00,
2013-02-18 12:53:00,48.5,41.0,29.58,SSW,200,8.0,19.0,75,0.00,,OVC250,0.00,VWS V14.01,2013-02-18 18:53:00,
2013-02-18 12:58:00,48.7,41.5,29.58,SW,223,12.0,19.0,76,0.00,,OVC250,0.00,VWS V14.01,2013-02-18 18:58:00,
2013-02-18 13:03:00,48.9,41.3,29.58,South,190,11.0,15.0,75,0.00,,OVC250,0.00,VWS V14.01,2013-02-18 19:03:00,
2013-02-18 13:08:00,49.0,41.4,29.57,SSW,205,7.0,18.0,75,0.00,,OVC250,0.00,VWS V14.01,2013-02-18 19:08:00,
2013-02-18 13:13:00,49.0,41.4,29.57,SSW,202,16.0,18.0,75,0.00,,OVC250,0.00,VWS V14.01,2013-02-18 19:13:00,
2013-02-18 13:18:00,49.0,41.4,29.57,South,187,15.0,18.0,75,0.00,,OVC250,0.00,VWS V14.01,2013-02-18 19:18:00,
2013-02-18 13:23:00,48.8,41.2,29.57,South,173,18.0,18.0,75,0.00,,OVC250,0.00,VWS V14.01,2013-02-18 19:23:00,
2013-02-18 13:28:00,48.4,41.2,29.57,SSW,196,8.0,18.0,76,0.00,,OVC250,0.00,VWS V14.01,2013-02-18 19:28:00,
2013-02-18 13:33:00,47.8,41.0,29.57,SSE,164,6.0,15.0,77,0.00,,OVC250,0.00,VWS V14.01,2013-02-18 19:33:00,
2013-02-18 13:38:00,47.3,40.8,29.56,SSW,195,10.0,15.0,78,0.00,,OVC250,0.00,VWS V14.01,2013-02-18 19:38:00,
2013-02-18 13:43:00,46.9,40.7,29.56,South,173,8.0,15.0,79,0.00,,OVC250,0.00,VWS V14.01,2013-02-18 19:43:00,
2013-02-18 13:48:00,46.5,41.0,29.56,SSW,200,7.0,15.0,81,0.00,,OVC250,0.00,VWS V14.01,2013-02-18 19:48:00,
2013-02-18 13:53:00,46.3,40.8,29.56,SSE,167,11.0,15.0,81,0.00,,OVC250,0.00,VWS V14.01,2013-02-18 19:53:00,
2013-02-18 13:58:00,46.1,41.2,29.56,South,182,9.0,15.0,83,0.00,,OVC250,0.00,VWS V14.01,2013-02-18 19:58:00,
2013-02-18 14:03:00,46.0,41.1,29.56,SSW,198,7.0,10.0,83,0.00,,OVC250,0.00,VWS V14.01,2013-02-18 20:03:00,
2013-02-18 14:08:00,46.0,41.4,29.55,SW,229,7.0,11.0,84,0.00,,OVC250,0.00,VWS V14.01,2013-02-18 20:08:00,
2013-02-18 14:13:00,45.9,41.3,29.55,SSW,209,4.0,14.0,84,0.00,,OVC250,0.00,VWS V14.01,2013-02-18 20:13:00,
2013-02-18 14:18:00,45.7,41.2,29.55,SSE,167,8.0,14.0,84,0.00,,OVC250,0.00,VWS V14.01,2013-02-18 20:18:00,
2013-02-18 14:23:00,45.6,41.4,29.55,SSW,194,7.0,14.0,85,0.00,,OVC250,0.00,VWS V14.01,2013-02-18 20:23:00,
2013-02-18 14:28:00,45.6,41.0,29.55,South,175,5.0,14.0,84,0.00,,OVC250,0.00,VWS V14.01,2013-02-18 20:28:00,
2013-02-18 14:33:00,45.6,41.4,29.54,South,171,5.0,13.0,85,0.00,,OVC037,0.00,VWS V14.01,2013-02-18 20:33:00,
2013-02-18 14:38:00,45.5,41.3,29.54,SSW,195,7.0,13.0,85,0.00,,OVC037,0.00,VWS V14.01,2013-02-18 20:38:00,
2013-02-18 14:43:00,45.4,41.5,29.54,SSW,202,7.0,13.0,86,0.00,,OVC037,0.00,VWS V14.01,2013-02-18 20:43:00,
2013-02-18 14:48:00,45.3,41.4,29.54,SSW,196,7.0,13.0,86,0.00,,OVC037,0.00,VWS V14.01,2013-02-18 20:48:00,
2013-02-18 14:53:00,45.2,41.6,29.54,SSW,200,5.0,13.0,87,0.00,,OVC037,0.00,VWS V14.01,2013-02-18 20:53:00,
2013-02-18 14:58:00,45.0,41.4,29.53,SSE,162,5.0,14.0,87,0.00,,OVC037,0.00,VWS V14.01,2013-02-18 20:58:00,
2013-02-18 15:03:00,44.7,41.4,29.53,SSW,196,8.0,11.0,88,0.00,,OVC037,0.00,VWS V14.01,2013-02-18 21:03:00,
2013-02-18 15:08:00,44.6,41.6,29.52,SW,222,5.0,12.0,89,0.00,,OVC037,0.00,VWS V14.01,2013-02-18 21:08:00,
2013-02-18 15:13:00,44.5,41.5,29.52,NE,49,3.0,12.0,89,0.00,,OVC037,0.00,VWS V14.01,2013-02-18 21:13:00,
2013-02-18 15:18:00,44.5,41.8,29.51,SSW,203,6.0,12.0,90,0.00,,OVC037,0.00,VWS V14.01,2013-02-18 21:18:00,
2013-02-18 15:23:00,44.5,41.8,29.51,South,187,5.0,12.0,90,0.00,,OVC037,0.00,VWS V14.01,2013-02-18 21:23:00,
2013-02-18 15:28:00,44.5,41.8,29.51,South,171,5.0,12.0,90,0.00,,OVC037,0.00,VWS V14.01,2013-02-18 21:28:00,
2013-02-18 15:33:00,44.5,41.8,29.51,South,172,7.0,7.0,90,0.00,,OVC037,0.00,VWS V14.01,2013-02-18 21:33:00,
2013-02-18 15:38:00,44.5,41.8,29.50,SSE,148,7.0,12.0,90,0.00,,OVC037,0.00,VWS V14.01,2013-02-18 21:38:00,
2013-02-18 15:43:00,44.5,41.8,29.50,South,176,5.0,12.0,90,0.00,,OVC037,0.00,VWS V14.01,2013-02-18 21:43:00,
2013-02-18 15:48:00,44.5,41.8,29.50,SSE,164,6.0,12.0,90,0.00,,-RA,0.00,VWS V14.01,2013-02-18 21:48:00,
2013-02-18 15:53:00,44.5,41.8,29.49,SSE,161,4.0,12.0,90,0.00,,-RA,0.00,VWS V14.01,2013-02-18 21:53:00,
2013-02-18 15:58:00,44.5,42.0,29.49,South,172,6.0,13.0,91,0.00,,-RA,0.00,VWS V14.01,2013-02-18 21:58:00,
2013-02-18 16:03:00,44.6,42.1,29.49,SSE,155,6.0,10.0,91,0.00,,-RA,0.00,VWS V14.01,2013-02-18 22:03:00,
2013-02-18 16:08:00,44.5,42.0,29.49,SSW,205,7.0,10.0,91,0.00,,-RA,0.00,VWS V14.01,2013-02-18 22:08:00,
2013-02-18 16:13:00,44.5,42.0,29.48,SW,214,7.0,10.0,91,0.00,,-RA,0.00,VWS V14.01,2013-02-18 22:13:00,
2013-02-18 16:18:00,44.4,41.9,29.48,South,183,3.0,10.0,91,0.00,,-RA,0.00,VWS V14.01,2013-02-18 22:18:00,
2013-02-18 16:23:00,44.4,41.9,29.47,SSW,195,6.0,12.0,91,0.00,,-RA,0.00,VWS V14.01,2013-02-18 22:23:00,
2013-02-18 16:28:00,44.4,42.2,29.47,SSE,165,5.0,12.0,92,0.00,,-RA,0.00,VWS V14.01,2013-02-18 22:28:00,
2013-02-18 16:33:00,44.4,42.2,29.47,South,176,8.0,10.0,92,0.00,,-RA,0.00,VWS V14.01,2013-02-18 22:33:00,
2013-02-18 16:38:00,44.4,42.2,29.46,South,186,4.0,10.0,92,0.00,,-RA,0.00,VWS V14.01,2013-02-18 22:38:00,
2013-02-18 16:44:00,44.4,42.2,29.46,SE,142,5.0,11.0,92,0.00,,-RA,0.00,VWS V14.01,2013-02-18 22:44:00,
2013-02-18 16:49:00,44.4,42.5,29.46,SSW,209,7.0,12.0,93,0.01,,-RA,0.01,VWS V14.01,2013-02-18 22:49:00,
2013-02-18 16:54:00,44.5,42.9,29.46,SW,236,10.0,13.0,94,0.02,,-RA,0.02,VWS V14.01,2013-02-18 22:54:00,
2013-02-18 16:59:00,44.6,43.0,29.45,SSE,161,13.0,13.0,94,0.03,,-RA,0.03,VWS V14.01,2013-02-18 22:59:00,
2013-02-18 17:04:00,44.6,43.0,29.46,SSW,193,7.0,13.0,94,0.03,,-RA,0.03,VWS V14.01,2013-02-18 23:04:00,
2013-02-18 17:09:00,44.5,42.9,29.46,South,178,7.0,13.0,94,0.04,,-RA,0.04,VWS V14.01,2013-02-18 23:09:00,
2013-02-18 17:14:00,44.4,43.1,29.45,South,182,4.0,13.0,95,0.05,,-RA,0.05,VWS V14.01,2013-02-18 23:14:00,
2013-02-18 17:19:00,44.3,43.0,29.45,SSW,205,5.0,13.0,95,0.06,,-RA,0.06,VWS V14.01,2013-02-18 23:19:00,
2013-02-18 17:24:00,44.5,43.4,29.44,SW,217,4.0,13.0,96,0.08,,-RA,0.08,VWS V14.01,2013-02-18 23:24:00,
2013-02-18 17:29:00,44.4,43.1,29.44,SSW,198,3.0,13.0,95,0.09,,-RA,0.09,VWS V14.01,2013-02-18 23:29:00,
2013-02-18 17:34:00,44.3,43.0,29.44,SW,218,4.0,6.0,95,0.09,,RA,0.09,VWS V14.01,2013-02-18 23:34:00,
2013-02-18 17:39:00,43.9,42.6,29.44,SW,232,4.0,6.0,95,0.10,,RA,0.10,VWS V14.01,2013-02-18 23:39:00,
2013-02-18 17:44:00,43.5,42.2,29.44,SW,214,2.0,6.0,95,0.12,,RA,0.12,VWS V14.01,2013-02-18 23:44:00,
2013-02-18 17:49:00,43.4,42.1,29.44,SSW,200,2.0,6.0,95,0.14,,RA,0.14,VWS V14.01,2013-02-18 23:49:00,
2013-02-18 17:54:00,43.2,42.1,29.44,SW,221,1.0,6.0,96,0.15,,RA,0.15,VWS V14.01,2013-02-18 23:54:00,
2013-02-18 17:59:00,43.1,42.0,29.44,West,271,1.0,6.0,96,0.16,,RA,0.16,VWS V14.01,2013-02-18 23:59:00,
2013-02-18 18:04:00,42.9,41.8,29.44,West,261,1.0,2.0,96,0.15,,RA,0.18,VWS V14.01,2013-02-19 00:04:00,
2013-02-18 18:09:00,42.9,41.8,29.44,WSW,237,2.0,4.0,96,0.18,,RA,0.21,VWS V14.01,2013-02-19 00:09:00,
2013-02-18 18:14:00,43.3,42.5,29.43,WSW,245,2.0,4.0,97,0.22,,RA,0.25,VWS V14.01,2013-02-19 00:14:00,
2013-02-18 18:20:00,43.5,42.7,29.43,West,265,3.0,8.0,97,0.24,,RA,0.27,VWS V14.01,2013-02-19 00:20:00,
2013-02-18 18:25:00,43.7,42.9,29.43,WNW,287,2.0,8.0,97,0.26,,RA,0.29,VWS V14.01,2013-02-19 00:25:00,
2013-02-18 18:30:00,43.6,42.8,29.43,WSW,237,6.0,8.0,97,0.27,,RA,0.30,VWS V14.01,2013-02-19 00:30:00,
2013-02-18 18:35:00,43.7,42.9,29.43,SW,222,6.0,12.0,97,0.23,,RA,0.32,VWS V14.01,2013-02-19 00:35:00,
2013-02-18 18:40:00,43.8,43.0,29.43,WSW,249,3.0,11.0,97,0.22,,,0.33,weatherlink.com 1.10,2013-02-19 00:40:00,
2013-02-18 18:45:00,43.7,42.9,29.43,SW,219,6.0,12.0,97,0.27,,-RA,0.36,VWS V14.01,2013-02-19 00:45:00,
2013-02-18 18:50:00,43.1,41.8,29.43,West,269,11.0,15.0,95,0.30,,-RA,0.39,VWS V14.01,2013-02-19 00:50:00,
2013-02-18 18:55:00,42.1,40.5,29.44,NE,55,5.0,15.0,94,0.32,,-RA,0.41,VWS V14.01,2013-02-19 00:55:00,
2013-02-18 19:00:00,40.7,38.8,29.44,WNW,303,6.0,15.0,93,0.34,,-RA,0.43,VWS V14.01,2013-02-19 01:00:00,
2013-02-18 19:05:00,39.8,38.0,29.44,West,267,5.0,19.0,93,0.30,,-RA,0.46,VWS V14.01,2013-02-19 01:05:00,
2013-02-18 19:10:00,39.1,37.5,29.44,NW,320,8.0,19.0,94,0.32,,-RA,0.48,VWS V14.01,2013-02-19 01:10:00,
2013-02-18 19:15:00,38.6,37.0,29.44,NE,39,8.0,19.0,94,0.34,,-RA,0.50,VWS V14.01,2013-02-19 01:15:00,
2013-02-18 19:20:00,38.2,36.6,29.45,SSE,167,1.0,19.0,94,0.35,,-RA,0.51,VWS V14.01,2013-02-19 01:20:00,
2013-02-18 19:25:00,37.9,36.6,29.45,WSW,248,2.0,19.0,95,0.37,,-RA,0.53,VWS V14.01,2013-02-19 01:25:00,
2013-02-18 19:30:00,37.5,36.2,29.45,WNW,292,2.0,19.0,95,0.39,,-RA,0.55,VWS V14.01,2013-02-19 01:30:00,
2013-02-18 19:35:00,37.2,35.6,29.45,NNE,22,4.0,12.0,94,0.26,,-RA,0.56,VWS V14.01,2013-02-19 01:35:00,
2013-02-18 19:40:00,36.8,35.5,29.45,West,261,4.0,12.0,95,0.27,,-RA,0.57,VWS V14.01,2013-02-19 01:40:00,
2013-02-18 19:45:00,36.4,34.8,29.45,WNW,303,3.0,12.0,94,0.28,,-RA,0.58,VWS V14.01,2013-02-19 01:45:00,
2013-02-18 19:50:00,36.0,34.4,29.45,NNW,346,5.0,12.0,94,0.28,,-RA,0.58,VWS V14.01,2013-02-19 01:50:00,
2013-02-18 19:55:00,35.7,34.2,29.45,WNW,292,10.0,12.0,94,0.29,,-RA,0.59,VWS V14.01,2013-02-19 01:55:00,
2013-02-18 20:00:00,35.4,34.1,29.45,WSW,243,3.0,12.0,95,0.30,,-RA,0.60,VWS V14.01,2013-02-19 02:00:00,
2013-02-18 20:05:00,35.1,33.5,29.45,WNW,289,7.0,9.0,94,0.18,,,0.61,VWS V14.01,2013-02-19 02:05:00,
2013-02-18 20:10:00,34.5,33.0,29.45,WNW,286,9.0,13.0,94,0.18,,,0.61,VWS V14.01,2013-02-19 02:10:00,
2013-02-18 20:15:00,33.8,32.3,29.46,NW,306,4.0,13.0,94,0.18,,,0.61,VWS V14.01,2013-02-19 02:15:00,
2013-02-18 20:20:00,33.2,31.9,29.47,West,260,7.0,13.0,95,0.18,,,0.61,VWS V14.01,2013-02-19 02:20:00,
2013-02-18 20:25:00,32.8,31.5,29.47,West,280,11.0,13.0,95,0.18,,,0.61,VWS V14.01,2013-02-19 02:25:00,
2013-02-18 20:30:00,32.5,31.5,29.47,West,280,9.0,10.0,96,0.06,,,0.61,VWS V14.01,2013-02-19 02:30:00,
2013-02-18 20:35:00,32.4,31.4,29.47,West,275,6.0,11.0,96,0.06,,,0.61,VWS V14.01,2013-02-19 02:35:00,
2013-02-18 20:40:00,32.3,31.3,29.47,West,271,10.0,12.0,96,0.06,,,0.61,VWS V14.01,2013-02-19 02:40:00,
2013-02-18 20:45:00,32.3,31.3,29.47,WSW,256,5.0,12.0,96,0.06,,,0.61,VWS V14.01,2013-02-19 02:45:00,
2013-02-18 20:52:00,32.2,32.0,29.46,WNW,286,9.0,16.0,97,0.02,,,0.61,weatherlink.com 1.10,2013-02-19 02:52:00,
2013-02-18 21:00:00,32.2,31.5,29.47,WNW,292,8.0,17.0,97,0.06,,,0.61,VWS V14.01,2013-02-19 03:00:00,
2013-02-18 21:22:00,31.8,31.0,29.49,WNW,283,9.0,21.0,96,0.00,,,0.61,weatherlink.com 1.10,2013-02-19 03:22:00,
2013-02-18 21:30:00,31.1,30.1,29.49,WNW,292,12.0,24.0,96,0.01,,,0.61,VWS V14.01,2013-02-19 03:30:00,
2013-02-18 21:37:00,30.8,30.0,29.49,WNW,289,11.0,23.0,96,0.00,,,0.61,weatherlink.com 1.10,2013-02-19 03:37:00,
2013-02-18 21:52:00,30.0,29.0,29.51,WSW,254,13.0,23.0,96,0.00,,,0.61,weatherlink.com 1.10,2013-02-19 03:52:00,
2013-02-18 22:00:00,29.4,27.9,29.51,WNW,292,13.0,28.0,94,0.00,,,0.61,VWS V14.01,2013-02-19 04:00:00,
2013-02-18 22:07:00,28.8,27.0,29.51,West,278,16.0,31.0,94,0.00,,,0.61,weatherlink.com 1.10,2013-02-19 04:07:00,
2013-02-18 22:22:00,27.8,26.0,29.54,West,275,17.0,27.0,92,0.00,,,0.61,weatherlink.com 1.10,2013-02-19 04:22:00,
2013-02-18 22:30:00,27.2,24.9,29.54,WNW,292,17.0,31.0,91,0.00,,,0.61,VWS V14.01,2013-02-19 04:30:00,
2013-02-18 22:38:00,26.3,24.0,29.55,West,261,17.0,28.0,90,0.00,,,0.61,weatherlink.com 1.10,2013-02-19 04:38:00,
2013-02-18 22:53:00,25.5,23.0,29.56,West,280,15.0,29.0,89,0.00,,,0.61,weatherlink.com 1.10,2013-02-19 04:53:00,
2013-02-18 23:00:00,25.4,22.9,29.56,WNW,292,16.0,29.0,90,0.00,,,0.61,VWS V14.01,2013-02-19 05:00:00,
2013-02-18 23:08:00,25.3,23.0,29.57,West,279,16.0,29.0,90,0.00,,,0.61,weatherlink.com 1.10,2013-02-19 05:08:00,
2013-02-18 23:23:00,24.9,22.0,29.57,WNW,290,12.0,27.0,89,0.00,,,0.61,weatherlink.com 1.10,2013-02-19 05:23:00,
2013-02-18 23:30:00,24.0,20.7,29.58,WNW,292,16.0,28.0,87,0.00,,,0.61,VWS V14.01,2013-02-19 05:30:00,
2013-02-18 23:38:00,23.2,20.0,29.58,WNW,290,15.0,24.0,88,0.00,,,0.61,weatherlink.com 1.10,2013-02-19 05:38:00,
2013-02-18 23:53:00,22.6,20.0,29.59,West,269,18.0,25.0,88,0.00,,,0.61,weatherlink.com 1.10,2013-02-19 05:53:00,